Regional Weather Roundup
Issued by NWS

Home | Current Version | Previous Version | Text Only | Print | Product List | Glossary Off
Versions: 1 2 3 4 5 6 7 8 9 10 11 12 13 14 15 16 17 18 19 20 21 22 23 24 25 26 27 28

000
ASUS45 KCYS 282010
RWRWY

WYOMING REGIONAL WEATHER ROUNDUP
NATIONAL WEATHER SERVICE CHEYENNE WY
200 PM MDT WED JUN 28 2017

NOTE:  "FAIR" INDICATES FEW OR NO CLOUDS BELOW 12,000 FEET
WITH NO SIGNIFICANT WEATHER AND/OR OBSTRUCTIONS TO VISIBILITY.

WYZ001-282100-
YELLOWSTONE NATIONAL PARK

CITY           SKY/WX    TMP DP  RH WIND       PRES   REMARKS
LK YELLOWSTONE   N/A     57  40  52 MISG      30.05S
W YELLOWSTONE  NOT AVBL

$$
WYZ002>013-054>058-071-098>099-282100-
NORTHERN WYOMING

CITY           SKY/WX    TMP DP  RH WIND       PRES   REMARKS
JACKSON        PTSUNNY   55  45  67 E7        30.03F
CODY           FAIR      67  49  52 S9        29.86F
GREYBULL       FAIR      80  35  19 S5        29.74F
WORLAND        FAIR      81  42  25 NE10      29.75F
SHERIDAN       FAIR      81  46  29 NE8       29.76F
BUFFALO        FAIR      75  44  33 CALM      29.80F
GILLETTE       PTSUNNY   79  48  33 E10       29.77F
NEWCASTLE      FAIR      79  36  21 E5        29.82F

$$
WYZ014>020-022>026-101>103-282100-
CENTRAL WYOMING

CITY           SKY/WX    TMP DP  RH WIND       PRES   REMARKS
BIG PINEY      FAIR      75  32  20 W21G28    29.99S
PINEDALE       FAIR      70  28  21 NW24G37   30.00S
DUBOIS         MOCLDY    50  41  71 W13       30.06F
LANDER         FAIR      77  36  22 N7        29.86F
RIVERTON       FAIR      78  35  21 MISG      29.85F
CASPER         FAIR      83  27  13 W21G36    29.84F
DOUGLAS        FAIR      81  39  22 W13       29.83F

$$
WYZ021-027>030-104>119-282100-
SOUTHERN WYOMING

CITY           SKY/WX    TMP DP  RH WIND       PRES   REMARKS
EVANSTON       FAIR      76  27  16 W21G32    30.03F
KEMMERER         N/A     73  27  17 SW22G33   30.01F
FORT BRIDGER   FAIR      79  21  11 W22G32    30.04F
ROCK SPRINGS   FAIR      79  22  12 W23G31    29.95F
DIXON          FAIR      83  24  11 W14G22    29.98F
RAWLINS        FAIR      81  25  12 SW17G28   29.94F
SARATOGA       FAIR      81  27  13 W20       29.98F
LARAMIE        FAIR      80  22  11 W25G39    29.98F
CHEYENNE       LGT RAIN  77  37  23 SW17G23   29.91F
TORRINGTON     FAIR      85  36  17 NE5       29.77F
PINE BLUFFS    FAIR      82  36  18 W8G16     29.86F

$$




USA.gov is the U.S. government's official web portal to all federal, state and local government web resources and services.